DELTA 1 DEB, 27788

Orbit data source: Space-Track

DELTA 1 DEB, 27788 is space debris in LEO originally from a launch on Sat, 06 Nov 1965 UTC launched from the Air Force Eastern Test Range (AFETR). Debris objects in space refer to the collection of defunct objects orbiting the Earth. Examples of debris include non-operational satellites, rocket bodies, and fragments generated from explosions, collisions, or faulty payload assembly.

Loading next visibility...
Identifier
27788, 1965-089E
Orbit
LEO
Country
Flag of USUS
Related business
Manufacturer
Unknown
Mission
Spacecraft
Bus & Motor
Unknown
Mass
Unknown
Launch date (UTC)
1965-11-06 (61 years ago)
Launch vehicle
Unknown
Launch site
Air Force Eastern Test Range (AFETR)
Object type
Payload
Rocket body
Debris
Shape & HBR
Unknown shape, 0.1 m
Radar Cross Section
Small (<0.1 m²)

Expand to show TLE details & history
Last TLE update: 3 months ago

TLE from 3 months ago
0 DELTA 1 DEB
1 27788U 65089E   26104.21538022  .00001157  00000-0  58571-2 0  9998
2 27788  59.3742 272.8136 0602304 187.7858 351.2339 12.29007046606034
Epoch: 2026-04-14T05:10Z
TLE epoch observation values (Epoch: 2026-04-14T05:10:08.851Z)
Latitude
1.74932°
Longitude
171.85129°
Altitude
1,083.249 km
Speed
7.525 km/s
True Right ascension
06h 07m 07s
True Declination
1° 44' 22"
Sunlit
Object was in daylight at epoch
Visualization orbit readout
Latitude
Unknown
Longitude
Unknown
Altitude
Unknown
Speed
Unknown
Apparent Right ascension
Unknown
Apparent Declination
Unknown
Sunlit
N/A
Visualization observer readout
Local Sidereal Time
15:15:04
Azimuth
Unknown
Elevation
Unknown
Doppler factor
Unknown
Orbital elements
Apogee altitude
2,030.629 km
Perigee altitude
1,075.245 km
Semi-major axis
7,931.074 km
Eccentricity
0.06023
Inclination
59.3742°
RAAN
272.8136°
Arg. of periapsis
187.7858°
True anomaly
350.09786°
Mean anomaly
351.2339°
Eccentric anomaly
350.67471°
Mean motion
3.07288 °/min
Orbital period
117.15 mins
BSTAR
0.0058571
Loading maneuver chart data...
Computing Atmospheric mass density...
Loading historical data...
Loading historical data...
Loading historical data...
Loading historical data...
Loading historical data...
Loading historical data...
Loading historical data...

Documentation

Showing up to 5 results
|